Total_Precipitation_Accumulation
0.29 0.30 0.27 0.26 0.20 0.19 0.18 0.19 0.41 0.70 0.97 1.33 1.51 1.42 1.39 1.35 1.11 0.86 0.75 0.71 0.72 0.72 0.65 0.58 0.55 0.53 0.50 0.49 0.47 0.47 0.48 0.50 0.47 0.42 0.39 0.39 0.40 0.44 0.43 0.38 0.35 0.33 0.30 0.27
0.25 0.20 0.23 0.28 0.28 0.29 0.33 0.36 0.47 0.78 1.20 1.60 1.68 1.52 1.44 1.39 1.25 1.07 0.97 0.94 0.91 0.84 0.77 0.73 0.71 0.66 0.63 0.60 0.58 0.57 0.58 0.58 0.59 0.58 0.55 0.51 0.46 0.41 0.36 0.31 0.25 0.19 0.15 0.15
0.38 0.23 0.33 0.55 0.44 0.36 0.41 0.48 0.62 0.98 1.24 1.35 1.41 1.46 1.51 1.58 1.51 1.29 1.14 1.09 1.08 1.04 0.97 0.90 0.87 0.82 0.79 0.74 0.69 0.68 0.67 0.66 0.65 0.61 0.56 0.46 0.36 0.29 0.24 0.22 0.20 0.17 0.13 0.10
0.37 0.41 0.76 0.68 0.34 0.32 0.44 0.53 0.60 0.74 0.86 0.98 1.03 1.13 1.20 1.28 1.29 1.22 1.12 1.09 1.08 1.06 1.06 1.02 0.95 0.87 0.84 0.79 0.74 0.70 0.69 0.64 0.59 0.51 0.43 0.34 0.27 0.23 0.20 0.20 0.21 0.20 0.16 0.14
0.39 0.56 0.71 0.63 0.33 0.30 0.57 0.91 0.71 0.69 0.64 0.62 0.63 0.71 0.94 1.06 1.07 1.12 1.19 1.22 1.17 1.10 1.02 0.98 0.93 0.87 0.84 0.83 0.78 0.69 0.62 0.53 0.43 0.35 0.30 0.25 0.22 0.20 0.20 0.19 0.18 0.16 0.16 0.16
0.42 0.64 0.85 0.82 0.33 0.21 0.46 1.13 0.93 0.77 0.71 0.67 0.74 0.86 0.90 0.89 0.89 0.97 1.03 1.05 0.98 0.89 0.80 0.78 0.78 0.75 0.69 0.65 0.61 0.53 0.41 0.33 0.29 0.27 0.26 0.24 0.21 0.19 0.18 0.18 0.16 0.13 0.11 0.13
0.50 0.73 0.91 0.44 0.16 0.28 0.81 1.11 0.97 0.80 0.71 0.71 0.89 0.88 0.67 0.63 0.67 0.72 0.78 0.77 0.72 0.68 0.70 0.70 0.62 0.53 0.48 0.43 0.40 0.33 0.27 0.24 0.22 0.21 0.19 0.21 0.22 0.20 0.19 0.18 0.18 0.16 0.14 0.13
0.62 0.84 0.93 0.33 0.19 0.43 0.60 0.57 0.65 0.64 0.63 0.61 0.56 0.45 0.41 0.41 0.45 0.48 0.51 0.52 0.51 0.53 0.55 0.52 0.43 0.37 0.36 0.34 0.27 0.22 0.23 0.25 0.24 0.20 0.15 0.18 0.25 0.24 0.22 0.23 0.24 0.23 0.21 0.18
0.63 0.77 0.62 0.31 0.24 0.28 0.34 0.47 0.47 0.43 0.40 0.32 0.29 0.26 0.26 0.28 0.30 0.32 0.34 0.38 0.41 0.38 0.38 0.37 0.35 0.34 0.34 0.31 0.25 0.24 0.27 0.30 0.26 0.20 0.18 0.21 0.25 0.26 0.25 0.25 0.22 0.19 0.19 0.18
0.39 0.46 0.37 0.30 0.24 0.21 0.23 0.30 0.28 0.28 0.28 0.21 0.20 0.23 0.25 0.27 0.25 0.25 0.29 0.31 0.33 0.31 0.31 0.32 0.32 0.32 0.32 0.29 0.28 0.34 0.38 0.33 0.25 0.23 0.22 0.23 0.22 0.20 0.18 0.20 0.17 0.16 0.17 0.15
0.33 0.38 0.39 0.41 0.25 0.16 0.16 0.17 0.17 0.22 0.22 0.18 0.15 0.19 0.20 0.23 0.24 0.25 0.27 0.28 0.29 0.31 0.30 0.26 0.25 0.25 0.24 0.27 0.32 0.42 0.40 0.32 0.25 0.21 0.21 0.21 0.18 0.12 0.09 0.08 0.06 0.09 0.11 0.10
0.32 0.30 0.36 0.42 0.27 0.16 0.19 0.19 0.19 0.18 0.18 0.19 0.16 0.16 0.18 0.20 0.23 0.24 0.22 0.23 0.27 0.29 0.25 0.23 0.22 0.22 0.21 0.25 0.29 0.37 0.38 0.27 0.20 0.16 0.15 0.13 0.14 0.13 0.07 0.03 0.02 0.02 0.03 0.03
0.18 0.17 0.20 0.18 0.13 0.13 0.16 0.18 0.20 0.20 0.18 0.18 0.19 0.18 0.18 0.19 0.19 0.20 0.20 0.21 0.25 0.26 0.23 0.20 0.19 0.20 0.18 0.19 0.21 0.26 0.28 0.20 0.15 0.13 0.13 0.13 0.13 0.19 0.19 0.09 0.03 0.02 0.02 0.02
0.07 0.10 0.14 0.14 0.15 0.14 0.16 0.19 0.19 0.18 0.19 0.21 0.19 0.16 0.14 0.13 0.14 0.17 0.18 0.16 0.14 0.15 0.17 0.18 0.16 0.14 0.12 0.12 0.16 0.15 0.12 0.08 0.07 0.10 0.10 0.10 0.09 0.11 0.14 0.19 0.18 0.12 0.05 0.02
0.08 0.10 0.14 0.16 0.20 0.18 0.19 0.22 0.21 0.18 0.18 0.18 0.15 0.11 0.10 0.10 0.12 0.13 0.12 0.10 0.11 0.14 0.13 0.13 0.12 0.11 0.07 0.08 0.10 0.09 0.07 0.07 0.06 0.06 0.04 0.05 0.05 0.05 0.05 0.09 0.16 0.19 0.14 0.07
0.11 0.11 0.12 0.17 0.23 0.24 0.24 0.24 0.21 0.16 0.11 0.10 0.09 0.08 0.08 0.08 0.08 0.08 0.08 0.08 0.13 0.16 0.14 0.13 0.12 0.09 0.05 0.05 0.06 0.06 0.05 0.04 0.04 0.03 0.02 0.02 0.03 0.02 0.03 0.05 0.09 0.13 0.13 0.08
0.13 0.11 0.11 0.13 0.16 0.19 0.17 0.13 0.10 0.08 0.06 0.05 0.05 0.04 0.04 0.05 0.06 0.07 0.08 0.09 0.13 0.15 0.13 0.12 0.09 0.04 0.02 0.02 0.04 0.04 0.02 0.01 0.01 0.01 0.01 0.01 0.01 0.02 0.02 0.02 0.05 0.08 0.06 0.04
0.13 0.12 0.10 0.10 0.10 0.10 0.08 0.05 0.04 0.04 0.03 0.02 0.02 0.02 0.03 0.05 0.06 0.06 0.06 0.06 0.08 0.11 0.10 0.05 0.03 0.02 0.01 0.01 0.02 0.02 0.01 0.01 0.01 0.00 0.00 0.00 0.01 0.01 0.01 0.02 0.03 0.04 0.05 0.05
0.07 0.05 0.05 0.05 0.05 0.04 0.03 0.03 0.02 0.01 0.01 0.01 0.01 0.03 0.04 0.04 0.03 0.03 0.03 0.04 0.07 0.09 0.07 0.03 0.01 0.02 0.01 0.01 0.01 0.01 0.00 0.00 0.00 0.00 0.00 0.00 0.00 0.00 0.00 0.01 0.02 0.03 0.04 0.05
0.03 0.02 0.02 0.02 0.02 0.02 0.02 0.02 0.01 0.01 0.01 0.01 0.02 0.03 0.02 0.02 0.01 0.01 0.03 0.05 0.06 0.05 0.02 0.01 0.01 0.02 0.01 0.01 0.00 0.00 0.00 0.00 0.00 0.00 0.00 0.00 0.00 0.00 0.00 0.00 0.01 0.02 0.03 0.04
0.02 0.02 0.01 0.01 0.01 0.01 0.01 0.01 0.01 0.01 0.01 0.01 0.02 0.02 0.02 0.01 0.01 0.01 0.02 0.04 0.05 0.03 0.01 0.00 0.01 0.01 0.01 0.00 0.00 0.00 0.00 0.00 0.00 0.00 0.00 0.00 0.00 0.00 0.00 0.00 0.01 0.01 0.02 0.03
0.02 0.01 0.02 0.01 0.01 0.01 0.01 0.01 0.01 0.01 0.01 0.01 0.01 0.01 0.01 0.01 0.01 0.01 0.02 0.04 0.03 0.01 0.01 0.00 0.01 0.00 0.00 0.00 0.00 0.00 0.00 0.00 0.00 0.00 0.00 0.00 0.00 0.00 0.01 0.01 0.01 0.01 0.02 0.03
0.05 0.02 0.02 0.01 0.01 0.01 0.01 0.01 0.01 0.00 0.00 0.00 0.00 0.01 0.01 0.01 0.00 0.01 0.02 0.02 0.01 0.00 0.01 0.01 0.00 0.00 0.00 0.00 0.00 0.00 0.00 0.00 0.00 0.00 0.00 0.00 0.00 0.00 0.00 0.00 0.00 0.01 0.01 0.01
0.09 0.04 0.02 0.02 0.02 0.02 0.02 0.01 0.00 0.00 0.00 0.00 0.00 0.00 0.01 0.01 0.00 0.00 0.00 0.00 0.00 0.00 0.00 0.00 0.00 0.00 0.00 0.00 0.00 0.00 0.00 0.00 0.00 0.00 0.00 0.00 0.00 0.00 0.00 0.00 0.00 0.00 0.00 0.00
0.07 0.05 0.03 0.03 0.04 0.04 0.02 0.01 0.01 0.01 0.00 0.00 0.00 0.00 0.00 0.00 0.00 0.00 0.00 0.00 0.00 0.00 0.00 0.00 0.00 0.00 0.00 0.00 0.00 0.00 0.00 0.00 0.00 0.00 0.00 0.00 0.00 0.00 0.00 0.00 0.00 0.00 0.00 0.00
0.11 0.10 0.07 0.05 0.04 0.04 0.02 0.00 0.00 0.01 0.01 0.01 0.00 0.00 0.00 0.00 0.00 0.00 0.00 0.00 0.00 0.00 0.00 0.00 0.00 0.00 0.00 0.00 0.00 0.00 0.00 0.00 0.00 0.00 0.00 0.00 0.00 0.00 0.00 0.00 0.00 0.00 0.00 0.00
0.20 0.17 0.11 0.09 0.07 0.03 0.01 0.00 0.00 0.00 0.00 0.00 0.00 0.00 0.00 0.00 0.00 0.00 0.00 0.00 0.00 0.00 0.00 0.00 0.00 0.00 0.00 0.00 0.00 0.00 0.00 0.00 0.00 0.00 0.00 0.00 0.00 0.00 0.00 0.00 0.00 0.00 0.00 0.00